Regional Weather Roundup
Issued by NWS Little Rock, AR

Home | Current Version | Previous Version | Graphics & Text | Print | Product List | Glossary On
Versions: 1 2 3 4 5 6 7 8 9 10 11 12 13 14 15 16 17 18 19 20 21 22 23 24 25 26 27 28 29 30 31 32 33 34 35 36 37 38 39 40 41 42 43 44 45 46 47 48 49 50
000
ASUS44 KLZK 171505
RWRLZK

WEATHER ROUNDUP FOR ARKANSAS
NATIONAL WEATHER SERVICE LITTLE ROCK AR
1000 AM CDT WED SEP 17 2014

NOTE: "FAIR" INDICATES FEW OR NO CLOUDS BELOW 12,000 FEET WITH NO
SIGNIFICANT WEATHER AND/OR OBSTRUCTIONS TO VISIBILITY.

ARZ001-003-010-029-171600-
NORTHWEST ARKANSAS

CITY           SKY/WX    TMP DP  RH WIND       PRES   REMARKS
FAYETTEVILLE   MOSUNNY   73  68  84 SW13      30.00R
FORT SMITH     CLOUDY    71  66  84 NE5       29.99S HAZE
HARRISON       CLOUDY    67  67 100 S8        30.01R
BENTONVILLE    MOSUNNY   73  68  83 SW15      29.99F
ROGERS         SUNNY     74  68  81 SW13G23   29.99S
SILOAM SPGS    PTSUNNY   72  66  83 SW12      30.00F
HIGHFILL       SUNNY     73  68  84 SW15      29.99S
SPRINGDALE     MOSUNNY   73  70  88 SW8G17    30.02R
$$

ARZ004-005-016-171600-
NORTH CENTRAL ARKANSAS

CITY           SKY/WX    TMP DP  RH WIND       PRES   REMARKS
BATESVILLE     CLOUDY    64  59  82 CALM      30.04R
FLIPPIN        CLOUDY    64  57  77 SE3       30.02S
MTN HOME       CLOUDY    63  59  87 VRB5      30.02R
$$

ARZ040-041-171600-
WEST CENTRAL ARKANSAS

CITY           SKY/WX    TMP DP  RH WIND       PRES   REMARKS
MENA             N/A     72  70  94 CALM      30.03S
MOUNT IDA      CLOUDY    70  66  87 CALM      30.00S FOG
$$

ARZ009-017-025-026-028-171600-
NORTHEAST ARKANSAS

CITY           SKY/WX    TMP DP  RH WIND       PRES   REMARKS
CORNING          N/A     61  57  88 E5        30.05S
JONESBORO      CLOUDY    65  58  78 E5        30.04R
NEWPORT        CLOUDY    65  60  83 E6        30.04F
WALNUT RIDGE   CLOUDY    63  55  77 E6        30.03F
BLYTHEVILLE    CLOUDY    65  59  81 E5        30.05R
NW BLYTHEVILLE CLOUDY    64  57  77 CALM      30.05R
$$

ARZ022-023-033-042-044-171600-
CENTRAL ARKANSAS

CITY           SKY/WX    TMP DP  RH WIND       PRES   REMARKS
LITTLE ROCK    PTSUNNY   72  62  71 SE6       30.02R
N LITTLE ROCK  PTSUNNY   71  65  81 SE6       30.02R
JACKSONVILLE   CLOUDY    71  62  75 SE3       30.02S
SEARCY         CLOUDY    66  61  84 CALM      30.03S
HOT SPRINGS    CLOUDY    69  64  84 SE3       30.02S
RUSSELLVILLE     N/A    N/A N/A N/A MISG      30.01S
CLINTON        CLOUDY    66  63  88 CALM      30.03S
$$

ARZ036-171600-
EAST ARKANSAS

CITY           SKY/WX    TMP DP  RH WIND       PRES   REMARKS
WEST MEMPHIS   CLOUDY    69  61  75 E7        30.01S
$$

ARZ050-053-066-070-073-171600-
SOUTHWEST ARKANSAS

CITY           SKY/WX    TMP DP  RH WIND       PRES   REMARKS
ARKADELPHIA    CLOUDY    69  66  90 CALM      30.02R
CAMDEN         LGT RAIN  72  66  83 CALM      30.00S
TEXARKANA      CLOUDY    71  71 100 E3        30.00S FOG
EL DORADO      PTSUNNY   73  70  90 CALM      30.00R FOG
DE QUEEN       CLOUDY    70  69  97 E5        30.00R FOG
$$

ARZ056-057-069-171600-
SOUTHEAST ARKANSAS

CITY           SKY/WX    TMP DP  RH WIND       PRES   REMARKS
PINE BLUFF     SUNNY     73  65  75 SE6       30.01S
STUTTGART      MOSUNNY   72  63  73 SE7       30.02R
MONTICELLO     SUNNY     75  68  78 CALM      30.00S

$$





USA.gov is the U.S. government's official web portal to all federal, state and local government web resources and services.